ARG1975 SAZM-SULS

Flight info

Callsign ARG1975
Flight time 0h 45m
Altitude 31000
Route ROPIS UM792 DARKA DCT LDS
Aircraft B738/M-SDE2E3FGHIRWXY/LB1

Departure

Time 2026-04-26 19:55
Airport Ástor Piazzola International Airport (SAZM)

Arrival

Time 2026-04-26 20:40
Airport Capitan Corbeta CA Curbelo International Airport (SULS)
Time Latitude Longitude Altitude Speed Heading
2026-04-26 19:37 -37.93334 -57.58070 53 ft 0 kts 334°
2026-04-26 19:46 -37.93335 -57.58069 53 ft 2 kts 334°
2026-04-26 19:46 -37.93358 -57.58056 53 ft 4 kts 341°
2026-04-26 19:47 -37.93384 -57.58047 49 ft 4 kts 356°
2026-04-26 19:47 -37.93401 -57.58048 51 ft 4 kts 17°
2026-04-26 19:47 -37.93410 -57.58052 53 ft 1 kts 26°
2026-04-26 19:49 -37.93393 -57.58040 53 ft 4 kts 28°
2026-04-26 19:49 -37.93374 -57.58013 53 ft 4 kts 77°
2026-04-26 19:50 -37.93386 -57.57966 49 ft 7 kts 116°
2026-04-26 19:50 -37.93416 -57.57898 53 ft 10 kts 120°
2026-04-26 19:50 -37.93448 -57.57826 51 ft 9 kts 118°
2026-04-26 19:50 -37.93479 -57.57756 52 ft 9 kts 119°
2026-04-26 19:51 -37.93516 -57.57675 51 ft 14 kts 119°
2026-04-26 19:51 -37.93566 -57.57558 52 ft 15 kts 119°
2026-04-26 19:51 -37.93616 -57.57445 50 ft 14 kts 119°
2026-04-26 19:51 -37.93664 -57.57336 53 ft 14 kts 119°
2026-04-26 19:52 -37.93709 -57.57232 51 ft 13 kts 120°
2026-04-26 19:52 -37.93759 -57.57122 50 ft 15 kts 119°
2026-04-26 19:52 -37.93814 -57.56997 53 ft 19 kts 119°
2026-04-26 19:52 -37.93881 -57.56847 53 ft 19 kts 120°
2026-04-26 19:53 -37.93946 -57.56699 53 ft 19 kts 119°
2026-04-26 19:53 -37.94008 -57.56558 52 ft 18 kts 119°
2026-04-26 19:53 -37.94020 -57.56424 52 ft 14 kts 64°
2026-04-26 19:53 -37.93984 -57.56342 49 ft 10 kts 54°
2026-04-26 19:54 -37.93927 -57.56325 52 ft 7 kts 309°
2026-04-26 19:54 -37.93922 -57.56336 52 ft 0 kts 303°
2026-04-26 19:54 -37.93902 -57.56376 49 ft 30 kts 303°
2026-04-26 19:54 -37.93644 -57.56885 50 ft 106 kts 302°
2026-04-26 19:55 -37.93131 -57.57893 167 ft 156 kts 303°
2026-04-26 19:55 -37.92524 -57.58979 1223 ft 136 kts 300°
2026-04-26 19:55 -37.92103 -57.59837 2504 ft 102 kts 301°
2026-04-26 19:55 -37.91679 -57.60681 2836 ft 128 kts 296°
2026-04-26 19:56 -37.91176 -57.61745 3202 ft 157 kts 295°
2026-04-26 19:56 -37.90782 -57.62583 3393 ft 177 kts 296°
2026-04-26 19:56 -37.89853 -57.64528 3669 ft 212 kts 297°
2026-04-26 19:56 -37.89041 -57.66213 4147 ft 232 kts 297°
2026-04-26 19:57 -37.88187 -57.67974 4937 ft 238 kts 297°
2026-04-26 19:57 -37.87310 -57.69781 5813 ft 241 kts 297°
2026-04-26 19:57 -37.86428 -57.71601 6670 ft 245 kts 297°
2026-04-26 19:57 -37.85717 -57.72742 7167 ft 256 kts 312°
2026-04-26 19:58 -37.84126 -57.73890 8006 ft 273 kts 335°
2026-04-26 19:58 -37.82199 -57.74221 8820 ft 287 kts 354°
2026-04-26 19:58 -37.80182 -57.74127 9344 ft 292 kts 357°
2026-04-26 19:58 -37.78141 -57.73965 9590 ft 295 kts 358°
2026-04-26 19:59 -37.76092 -57.73792 9601 ft 295 kts 358°
2026-04-26 19:59 -37.74040 -57.73622 9614 ft 295 kts 358°
2026-04-26 19:59 -37.71992 -57.73459 9622 ft 294 kts 357°
2026-04-26 19:59 -37.69948 -57.73304 9623 ft 294 kts 357°
2026-04-26 20:00 -37.67906 -57.73154 9622 ft 294 kts 357°
2026-04-26 20:00 -37.65862 -57.73008 9619 ft 294 kts 357°
2026-04-26 20:00 -37.63784 -57.72864 9703 ft 308 kts 357°
2026-04-26 20:00 -37.61560 -57.72717 9913 ft 332 kts 358°
2026-04-26 20:01 -37.59195 -57.72481 10319 ft 351 kts
2026-04-26 20:01 -37.56838 -57.71460 10966 ft 366 kts 24°
2026-04-26 20:01 -37.54706 -57.69660 11809 ft 370 kts 33°
2026-04-26 20:01 -37.52639 -57.67717 12652 ft 372 kts 34°
2026-04-26 20:02 -37.50556 -57.65744 13410 ft 376 kts 34°
2026-04-26 20:02 -37.48446 -57.63752 14162 ft 381 kts 33°
2026-04-26 20:02 -37.46312 -57.61751 14940 ft 384 kts 33°
2026-04-26 20:02 -37.44887 -57.60421 15434 ft 387 kts 33°
2026-04-26 20:03 -37.41973 -57.57713 16431 ft 392 kts 33°
2026-04-26 20:03 -37.39779 -57.55663 17164 ft 395 kts 33°
2026-04-26 20:03 -37.37547 -57.53625 17838 ft 398 kts 32°
2026-04-26 20:03 -37.35305 -57.51558 18490 ft 402 kts 33°
2026-04-26 20:04 -37.33049 -57.49428 19136 ft 406 kts 33°
2026-04-26 20:04 -37.30755 -57.47315 19751 ft 413 kts 32°
2026-04-26 20:04 -37.28294 -57.45478 20495 ft 408 kts 23°
2026-04-26 20:04 -37.25723 -57.43898 21015 ft 415 kts 21°
2026-04-26 20:05 -37.23135 -57.42373 21478 ft 419 kts 21°
2026-04-26 20:05 -37.20481 -57.40781 22018 ft 424 kts 22°
2026-04-26 20:05 -37.17822 -57.39174 22524 ft 426 kts 21°
2026-04-26 20:05 -37.15129 -57.37521 23015 ft 433 kts 21°
2026-04-26 20:06 -37.12442 -57.35852 23526 ft 432 kts 20°
2026-04-26 20:06 -37.09712 -57.34199 23883 ft 440 kts 20°
2026-04-26 20:06 -37.06960 -57.32473 24413 ft 444 kts 22°
2026-04-26 20:06 -37.04219 -57.30714 24928 ft 445 kts 20°
2026-04-26 20:07 -37.01451 -57.28981 25330 ft 447 kts 19°
2026-04-26 20:07 -36.98638 -57.27259 25696 ft 453 kts 20°
2026-04-26 20:07 -36.95817 -57.25470 26188 ft 456 kts 19°
2026-04-26 20:07 -36.92973 -57.23719 26678 ft 458 kts 18°
2026-04-26 20:08 -36.90127 -57.21912 27180 ft 459 kts 19°
2026-04-26 20:08 -36.87255 -57.20121 27488 ft 463 kts 18°
2026-04-26 20:08 -36.84354 -57.18347 27819 ft 466 kts 17°
2026-04-26 20:08 -36.81431 -57.16568 28177 ft 469 kts 17°
2026-04-26 20:09 -36.78487 -57.14772 28521 ft 472 kts 17°
2026-04-26 20:09 -36.75533 -57.12965 28887 ft 474 kts 17°
2026-04-26 20:09 -36.72576 -57.11150 29258 ft 475 kts 17°
2026-04-26 20:09 -36.69619 -57.09331 29746 ft 473 kts 16°
2026-04-26 20:10 -36.66677 -57.07519 30273 ft 470 kts 16°
2026-04-26 20:10 -36.63744 -57.05714 30666 ft 471 kts 16°
2026-04-26 20:10 -36.57808 -57.02081 30735 ft 479 kts 15°
2026-04-26 20:11 -36.51863 -56.98434 30733 ft 474 kts 15°
2026-04-26 20:12 -36.42832 -56.92933 30759 ft 492 kts 15°
2026-04-26 20:12 -36.36660 -56.89172 30761 ft 495 kts 15°
2026-04-26 20:13 -36.30485 -56.85402 30765 ft 493 kts 15°
2026-04-26 20:13 -36.24323 -56.81652 30775 ft 492 kts 15°
2026-04-26 20:14 -36.18188 -56.77930 30780 ft 491 kts 15°
2026-04-26 20:14 -36.12059 -56.74220 30786 ft 490 kts 14°
2026-04-26 20:15 -36.05934 -56.70520 30804 ft 489 kts 14°
2026-04-26 20:15 -35.99822 -56.66835 30798 ft 489 kts 14°
2026-04-26 20:16 -35.93706 -56.63154 30803 ft 489 kts 13°
2026-04-26 20:16 -35.87589 -56.59477 30810 ft 490 kts 13°
2026-04-26 20:16 -35.84524 -56.57637 30663 ft 491 kts 13°
2026-04-26 20:17 -35.81444 -56.55792 29973 ft 489 kts 13°
2026-04-26 20:17 -35.78408 -56.53963 29239 ft 482 kts 13°
2026-04-26 20:17 -35.75418 -56.52162 28684 ft 473 kts 13°
2026-04-26 20:17 -35.73471 -56.50989 28302 ft 468 kts 13°
2026-04-26 20:18 -35.69608 -56.48670 27540 ft 458 kts 12°
2026-04-26 20:18 -35.66759 -56.46968 26983 ft 453 kts 12°
2026-04-26 20:18 -35.63918 -56.45280 26436 ft 452 kts 12°
2026-04-26 20:18 -35.61090 -56.43591 25891 ft 452 kts 12°
2026-04-26 20:19 -35.58297 -56.41941 25323 ft 451 kts 12°
2026-04-26 20:19 -35.55444 -56.40248 24782 ft 447 kts 12°
2026-04-26 20:19 -35.52699 -56.38614 24236 ft 442 kts 12°
2026-04-26 20:19 -35.49945 -56.36974 23702 ft 438 kts 12°
2026-04-26 20:20 -35.47210 -56.35348 23164 ft 435 kts 13°
2026-04-26 20:20 -35.44498 -56.33732 22640 ft 432 kts 13°
2026-04-26 20:20 -35.41806 -56.32134 22110 ft 428 kts 13°
2026-04-26 20:20 -35.39133 -56.30556 21583 ft 425 kts 13°
2026-04-26 20:21 -35.36488 -56.28989 21053 ft 421 kts 13°
2026-04-26 20:21 -35.33861 -56.27437 20533 ft 417 kts 13°
2026-04-26 20:21 -35.31342 -56.25584 19984 ft 433 kts 27°
2026-04-26 20:21 -35.29190 -56.22897 19464 ft 451 kts 44°
2026-04-26 20:22 -35.27591 -56.19550 18920 ft 460 kts 56°
2026-04-26 20:22 -35.26325 -56.15908 18148 ft 469 kts 63°
2026-04-26 20:22 -35.25263 -56.12158 17583 ft 464 kts 65°
2026-04-26 20:22 -35.24259 -56.08432 17028 ft 459 kts 65°
2026-04-26 20:23 -35.23277 -56.04734 16486 ft 453 kts 65°
2026-04-26 20:23 -35.22305 -56.01092 15953 ft 448 kts 65°
2026-04-26 20:23 -35.21336 -55.97498 15429 ft 442 kts 65°
2026-04-26 20:23 -35.20366 -55.93940 14897 ft 436 kts 65°
2026-04-26 20:24 -35.19410 -55.90440 14384 ft 434 kts 64°
2026-04-26 20:24 -35.18450 -55.86980 13870 ft 425 kts 64°
2026-04-26 20:24 -35.17491 -55.83597 13352 ft 419 kts 64°
2026-04-26 20:24 -35.16553 -55.80297 12858 ft 414 kts 64°
2026-04-26 20:25 -35.15620 -55.76974 12360 ft 411 kts 64°
2026-04-26 20:25 -35.15011 -55.74738 12024 ft 410 kts 65°
2026-04-26 20:25 -35.13793 -55.70367 11353 ft 402 kts 64°
2026-04-26 20:25 -35.12908 -55.67196 10880 ft 396 kts 65°
2026-04-26 20:26 -35.12039 -55.64031 10555 ft 388 kts 65°
2026-04-26 20:26 -35.11191 -55.60983 10400 ft 373 kts 65°
2026-04-26 20:26 -35.10368 -55.58026 10250 ft 362 kts 65°
2026-04-26 20:26 -35.09567 -55.55161 10107 ft 352 kts 65°
2026-04-26 20:27 -35.08786 -55.52383 9963 ft 341 kts 65°
2026-04-26 20:27 -35.08024 -55.49680 9824 ft 332 kts 65°
2026-04-26 20:27 -35.07278 -55.47051 9764 ft 321 kts 65°
2026-04-26 20:27 -35.06556 -55.44509 9435 ft 319 kts 65°
2026-04-26 20:28 -35.05828 -55.41949 9100 ft 319 kts 66°
2026-04-26 20:28 -35.05107 -55.39389 8790 ft 318 kts 66°
2026-04-26 20:28 -35.04390 -55.36850 8496 ft 315 kts 66°
2026-04-26 20:28 -35.03677 -55.34333 8195 ft 312 kts 66°
2026-04-26 20:29 -35.02971 -55.31848 7924 ft 309 kts 66°
2026-04-26 20:29 -35.02270 -55.29375 7632 ft 307 kts 66°
2026-04-26 20:29 -35.01575 -55.26917 7357 ft 306 kts 67°
2026-04-26 20:29 -35.00881 -55.24476 7077 ft 303 kts 66°
2026-04-26 20:30 -35.00202 -55.22079 6812 ft 301 kts 67°
2026-04-26 20:30 -34.99526 -55.19682 6526 ft 297 kts 67°
2026-04-26 20:30 -34.98851 -55.17309 6258 ft 296 kts 67°
2026-04-26 20:30 -34.98179 -55.14949 5987 ft 295 kts 68°
2026-04-26 20:31 -34.97508 -55.12604 5709 ft 292 kts 67°
2026-04-26 20:31 -34.96843 -55.10268 5431 ft 290 kts 67°
2026-04-26 20:31 -34.96168 -55.07923 5148 ft 289 kts 67°
2026-04-26 20:31 -34.95509 -55.05619 4864 ft 287 kts 67°
2026-04-26 20:32 -34.94855 -55.03324 4583 ft 286 kts 67°
2026-04-26 20:32 -34.94208 -55.01067 4307 ft 286 kts 68°
2026-04-26 20:32 -34.93553 -54.98777 4028 ft 286 kts 68°
2026-04-26 20:32 -34.92899 -54.96491 3753 ft 286 kts 67°
2026-04-26 20:33 -34.92241 -54.94208 3497 ft 284 kts 68°
2026-04-26 20:33 -34.91597 -54.91964 3371 ft 278 kts 68°
2026-04-26 20:33 -34.90924 -54.89779 3136 ft 273 kts 59°
2026-04-26 20:33 -34.89710 -54.88095 3023 ft 259 kts 27°
2026-04-26 20:34 -34.88120 -54.87351 3022 ft 233 kts
2026-04-26 20:34 -34.86594 -54.87335 2988 ft 207 kts 343°
2026-04-26 20:34 -34.85279 -54.87757 2986 ft 187 kts 337°
2026-04-26 20:34 -34.84079 -54.88217 2992 ft 178 kts 336°
2026-04-26 20:35 -34.82914 -54.88669 3005 ft 175 kts 336°
2026-04-26 20:35 -34.81774 -54.89199 2989 ft 173 kts 320°
2026-04-26 20:35 -34.81058 -54.90275 2986 ft 164 kts 283°
2026-04-26 20:35 -34.81125 -54.91619 2977 ft 159 kts 262°
2026-04-26 20:36 -34.81331 -54.92923 2797 ft 154 kts 261°
2026-04-26 20:36 -34.81568 -54.94182 2586 ft 148 kts 258°
2026-04-26 20:36 -34.81849 -54.95330 2404 ft 137 kts 257°
2026-04-26 20:36 -34.82123 -54.96393 2228 ft 128 kts 257°
2026-04-26 20:37 -34.82388 -54.97417 2072 ft 127 kts 257°
2026-04-26 20:37 -34.82659 -54.98456 1890 ft 130 kts 256°
2026-04-26 20:37 -34.82932 -54.99500 1730 ft 128 kts 258°
2026-04-26 20:37 -34.83203 -55.00538 1555 ft 127 kts 257°
2026-04-26 20:38 -34.83471 -55.01565 1382 ft 127 kts 258°
2026-04-26 20:38 -34.83740 -55.02596 1205 ft 130 kts 256°
2026-04-26 20:38 -34.84027 -55.03701 1059 ft 142 kts 256°
2026-04-26 20:38 -34.84328 -55.04857 841 ft 142 kts 256°
2026-04-26 20:39 -34.84624 -55.05981 658 ft 136 kts 256°
2026-04-26 20:39 -34.84812 -55.06703 525 ft 135 kts 256°
2026-04-26 20:39 -34.85185 -55.08112 309 ft 125 kts 255°
2026-04-26 20:39 -34.85442 -55.09098 122 ft 121 kts 259°
2026-04-26 20:40 -34.85594 -55.09722 102 ft 109 kts 252°
2026-04-26 20:40 -34.85796 -55.10502 98 ft 34 kts 254°
2026-04-26 20:40 -34.85831 -55.10653 98 ft 13 kts 254°
2026-04-26 20:40 -34.85850 -55.10681 99 ft 2 kts 150°
2026-04-26 20:41 -34.85848 -55.10657 98 ft 7 kts 70°
2026-04-26 20:41 -34.85818 -55.10567 98 ft 9 kts 70°
2026-04-26 20:41 -34.85804 -55.10519 98 ft 9 kts 71°
2026-04-26 20:41 -34.85766 -55.10378 97 ft 18 kts 73°
2026-04-26 20:42 -34.85744 -55.10278 97 ft 18 kts 75°
2026-04-26 20:42 -34.85707 -55.10139 98 ft 16 kts 69°
2026-04-26 20:42 -34.85672 -55.10020 100 ft 14 kts 72°
2026-04-26 20:42 -34.85657 -55.09942 101 ft 7 kts 84°
2026-04-26 20:43 -34.85690 -55.09903 100 ft 9 kts 161°
2026-04-26 20:43 -34.85757 -55.09878 99 ft 11 kts 162°
2026-04-26 20:43 -34.85829 -55.09850 99 ft 11 kts 162°
2026-04-26 20:43 -34.85891 -55.09851 99 ft 9 kts 225°
2026-04-26 20:44 -34.85910 -55.09911 99 ft 7 kts 253°
2026-04-26 20:44 -34.85936 -55.09955 99 ft 6 kts 197°
2026-04-26 20:44 -34.85966 -55.09946 99 ft 2 kts 160°
2026-04-26 20:44 -34.85973 -55.09943 99 ft 0 kts 161°